Location: The Saddle
(36.8333°N, 80.3417°W)
Time: 06:34:04
(UTC-04:00)

Courier 1B - Pass Details

Date: 20 September 2024
Orbit: 962 x 1208 km, 28.3° (Epoch: 05 October)

Event Time Altitude Azimuth Distance (km) Brightness Sun altitude
Rises 19:25:30 0° 259° (W) 3,986 12.8 -1.8°
Reaches altitude 10° 19:30:08 10° 234° (SW) 3,071 11.0 -2.8°
Maximum altitude 19:33:21 13° 209° (SSW) 2,864 10.3 -3.4°
Drops below altitude 10° 19:36:37 10° 183° (S) 3,115 10.2 -4.1°
Sets 19:41:26 0° 158° (SSE) 4,094 10.5 -5.0°
